[Date Prev][Date Next][Thread Prev][Thread Next] - [Date Index][Thread Index][Author Index]

2 Line ISS Keps 1-12



ISS
1 25544U 98067A   05041.93817249 +.00023875 +00000-0 +19203-3 0 07893
2 25544 051.6459 186.5103 0009501 084.6766 009.4269 15.70771043355837
----
Via the sarex mailing list at AMSAT.ORG courtesy of AMSAT-NA.
To unsubscribe, send "unsubscribe sarex" to Majordomo@amsat.org



AMSAT Top AMSAT Home